| time (UTC) | temp F | wind direction | speed knots | gust knots | rain 1hr in | rain 24hr in | rain mn in | humidity % | barometer mb |
| 20260507065942 | 79 | 229 | 0.9 | 3.5 | 0.00 | 0.00 | 0.00 | 38 | 1012.9 |
| 20260507064941 | 78 | 165 | 0.9 | 1.7 | 0.00 | 0.00 | 0.00 | 38 | 1012.9 |
| 20260507063908 | 77 | 158 | 0.9 | 3.5 | 0.00 | 0.00 | 0.00 | 38 | 1012.9 |
| 20260507062908 | 76 | 297 | 0.9 | 4.3 | 0.00 | 0.00 | 0.00 | 38 | 1012.9 |
| 20260507061906 | 75 | 123 | 0.9 | 4.3 | 0.00 | 0.00 | 0.00 | 39 | 1012.9 |
| 20260507060905 | 75 | 167 | 0.0 | 3.5 | 0.00 | 0.00 | 0.00 | 41 | 1012.9 |
| 20260507055904 | 74 | 269 | 1.7 | 3.5 | 0.00 | 0.00 | 0.00 | 40 | 1012.9 |
| 20260507054903 | 72 | 295 | 0.9 | 3.5 | 0.00 | 0.00 | 0.00 | 43 | 1012.9 |
| 20260507053902 | 71 | 270 | 0.9 | 3.5 | 0.00 | 0.00 | 0.00 | 45 | 1012.9 |
| 20260507052830 | 69 | 131 | 0.0 | 3.5 | 0.00 | 0.00 | 0.00 | 47 | 1012.9 |
| 20260507051819 | 68 | 85 | 0.9 | 3.5 | 0.00 | 0.00 | 0.00 | 48 | 1012.9 |
| 20260507050818 | 67 | 220 | 0.9 | 3.5 | 0.00 | 0.00 | 0.00 | 49 | 1012.5 |
| 20260507045817 | 66 | 21 | 0.9 | 4.3 | 0.00 | 0.00 | 0.00 | 51 | 1012.5 |
| 20260507044811 | 65 | 65 | 0.9 | 4.3 | 0.00 | 0.00 | 0.00 | 52 | 1012.5 |
| 20260507043811 | 65 | 292 | 0.9 | 1.7 | 0.00 | 0.00 | 0.00 | 54 | 1012.5 |
| 20260507042810 | 64 | 286 | 1.7 | 1.7 | 0.00 | 0.00 | 0.00 | 54 | 1012.5 |
| 20260507041809 | 64 | 53 | 0.0 | 3.5 | 0.00 | 0.00 | 0.00 | 54 | 1012.5 |
| 20260507040705 | 64 | 103 | 1.7 | 4.3 | 0.00 | 0.00 | 0.00 | 55 | 1012.5 |
| 20260507035705 | 64 | 264 | 1.7 | 4.3 | 0.00 | 0.00 | 0.00 | 55 | 1012.5 |
| 20260507034704 | 64 | 86 | 0.9 | 2.6 | 0.00 | 0.00 | 0.00 | 55 | 1012.5 |
| 20260507033703 | 65 | 110 | 0.9 | 1.7 | 0.00 | 0.00 | 0.00 | 54 | 1012.2 |
| 20260507032702 | 65 | 139 | 0.9 | 1.7 | 0.00 | 0.00 | 0.00 | 53 | 1012.2 |
| 20260507031630 | 65 | 230 | 0.9 | 1.7 | 0.00 | 0.00 | 0.00 | 52 | 1012.2 |
| 20260507030629 | 65 | 53 | 0.9 | 3.5 | 0.00 | 0.00 | 0.00 | 52 | 1011.9 |
| 20260507025628 | 64 | 102 | 0.9 | 3.5 | 0.00 | 0.00 | 0.00 | 52 | 1011.9 |
| 20260507024627 | 64 | 270 | 0.9 | 3.5 | 0.00 | 0.00 | 0.00 | 52 | 1011.9 |
| 20260507023626 | 65 | 166 | 0.0 | 3.5 | 0.00 | 0.00 | 0.00 | 52 | 1011.9 |
| 20260507022625 | 65 | 85 | 1.7 | 3.5 | 0.00 | 0.00 | 0.00 | 52 | 1011.5 |
| 20260507021624 | 65 | 255 | 0.9 | 3.5 | 0.00 | 0.00 | 0.00 | 52 | 1011.5 |
| 20260507020623 | 65 | 215 | 0.9 | 3.5 | 0.00 | 0.00 | 0.00 | 52 | 1011.9 |
| 20260507015622 | 64 | 257 | 0.9 | 3.5 | 0.00 | 0.00 | 0.00 | 52 | 1011.5 |
| 20260507014621 | 65 | 184 | 1.7 | 2.6 | 0.00 | 0.00 | 0.00 | 52 | 1011.5 |
| 20260507013620 | 64 | 265 | 0.9 | 0.9 | 0.00 | 0.00 | 0.00 | 52 | 1011.5 |
| 20260507012548 | 64 | 198 | 0.9 | 1.7 | 0.00 | 0.00 | 0.00 | 52 | 1011.5 |
| 20260507011547 | 65 | 302 | 1.7 | 3.5 | 0.00 | 0.00 | 0.00 | 52 | 1011.5 |
| 20260507010546 | 65 | 344 | 1.7 | 4.3 | 0.00 | 0.00 | 0.00 | 51 | 1011.5 |
| 20260507005545 | 65 | 300 | 0.9 | 3.5 | 0.00 | 0.00 | 0.00 | 50 | 1011.5 |
| 20260507004544 | 65 | 350 | 0.9 | 3.5 | 0.00 | 0.00 | 0.00 | 50 | 1011.2 |
| 20260507003543 | 65 | 221 | 0.0 | 3.5 | 0.00 | 0.00 | 0.00 | 49 | 1011.2 |
| 20260507002511 | 66 | 261 | 1.7 | 4.3 | 0.00 | 0.00 | 0.00 | 48 | 1011.2 |
| 20260507001510 | 66 | 51 | 0.0 | 4.3 | 0.00 | 0.00 | 0.00 | 48 | 1011.2 |
| 20260507000509 | 66 | 158 | 1.7 | 1.7 | 0.00 | 0.00 | 0.00 | 48 | 1011.2 |
| 20260506235437 | 65 | 201 | 0.0 | 1.7 | 0.00 | 0.00 | 0.00 | 47 | 1010.8 |
| 20260506234435 | 66 | 4 | 0.0 | 1.7 | 0.00 | 0.00 | 0.00 | 47 | 1010.8 |
| 20260506233435 | 65 | 279 | 0.9 | 1.7 | 0.00 | 0.00 | 0.00 | 47 | 1010.8 |
| 20260506232403 | 63 | 340 | 0.9 | 0.9 | 0.00 | 0.00 | 0.00 | 49 | 1010.8 |
| 20260506231300 | 63 | 165 | 0.0 | 0.0 | 0.00 | 0.00 | 0.00 | 50 | 1010.5 |
| 20260506230259 | 62 | 165 | 0.0 | 0.0 | 0.00 | 0.00 | 0.00 | 50 | 1010.5 |
| 20260506225258 | 62 | 86 | 0.0 | 0.0 | 0.00 | 0.00 | 0.00 | 50 | 1010.5 |
| 20260506224257 | 62 | 104 | 0.0 | 0.0 | 0.00 | 0.00 | 0.00 | 51 | 1010.5 |
| 20260506223256 | 63 | 104 | 0.0 | 0.0 | 0.00 | 0.00 | 0.00 | 50 | 1010.5 |
| 20260506222224 | 63 | 104 | 0.0 | 0.0 | 0.00 | 0.00 | 0.00 | 49 | 1010.5 |
| 20260506221223 | 64 | 104 | 0.0 | 0.0 | 0.00 | 0.00 | 0.00 | 47 | 1010.5 |
| 20260506220222 | 65 | 77 | 0.0 | 0.0 | 0.00 | 0.00 | 0.00 | 45 | 1010.2 |
| 20260506215220 | 65 | 77 | 0.0 | 0.0 | 0.00 | 0.00 | 0.00 | 43 | 1010.2 |
| 20260506214219 | 66 | 77 | 0.0 | 0.0 | 0.00 | 0.00 | 0.00 | 42 | 1010.2 |
| 20260506213218 | 66 | 77 | 0.0 | 0.0 | 0.00 | 0.00 | 0.00 | 42 | 1010.2 |
| 20260506212217 | 66 | 77 | 0.0 | 0.0 | 0.00 | 0.00 | 0.00 | 42 | 1010.2 |
| 20260506211144 | 66 | 76 | 0.0 | 0.0 | 0.00 | 0.00 | 0.00 | 42 | 1010.2 |
| 20260506210143 | 66 | 77 | 0.0 | 0.0 | 0.00 | 0.00 | 0.00 | 42 | 1009.8 |
| 20260506205142 | 66 | 77 | 0.0 | 0.0 | 0.00 | 0.00 | 0.00 | 42 | 1009.8 |
| 20260506204141 | 66 | 163 | 0.0 | 0.0 | 0.00 | 0.00 | 0.00 | 42 | 1009.8 |
| 20260506203140 | 66 | 163 | 0.0 | 0.0 | 0.00 | 0.00 | 0.00 | 42 | 1009.8 |
| 20260506202139 | 66 | 162 | 0.0 | 0.0 | 0.00 | 0.00 | 0.00 | 42 | 1009.8 |
| 20260506201138 | 66 | 162 | 0.0 | 0.0 | 0.00 | 0.00 | 0.00 | 41 | 1009.8 |
| 20260506200137 | 67 | 162 | 0.0 | 0.0 | 0.00 | 0.00 | 0.00 | 40 | 1009.8 |
| 20260506195136 | 68 | 162 | 0.0 | 0.0 | 0.00 | 0.00 | 0.00 | 39 | 1009.8 |
| 20260506194135 | 69 | 162 | 0.0 | 0.9 | 0.00 | 0.00 | 0.00 | 38 | 1009.8 |
| 20260506193135 | 70 | 162 | 0.0 | 0.9 | 0.00 | 0.00 | 0.00 | 37 | 1009.8 |
| 20260506192133 | 70 | 153 | 0.0 | 0.0 | 0.00 | 0.00 | 0.00 | 36 | 1009.8 |
| 20260506191132 | 71 | 150 | 0.0 | 0.0 | 0.00 | 0.00 | 0.00 | 36 | 1009.8 |
| 20260506190131 | 71 | 149 | 0.0 | 0.9 | 0.00 | 0.00 | 0.00 | 36 | 1009.8 |
| 20260506185059 | 72 | 150 | 0.0 | 0.9 | 0.00 | 0.00 | 0.00 | 35 | 1009.5 |
| 20260506184058 | 72 | 173 | 0.9 | 0.9 | 0.00 | 0.00 | 0.00 | 35 | 1009.5 |
| 20260506183058 | 72 | 136 | 0.0 | 0.9 | 0.00 | 0.00 | 0.00 | 35 | 1009.5 |
| 20260506182057 | 73 | 151 | 0.0 | 0.9 | 0.00 | 0.00 | 0.00 | 34 | 1009.1 |
| 20260506181056 | 73 | 195 | 0.0 | 0.0 | 0.00 | 0.00 | 0.00 | 34 | 1009.1 |
| 20260506180046 | 74 | 176 | 0.0 | 0.9 | 0.00 | 0.00 | 0.00 | 33 | 1009.1 |
| 20260506175013 | 75 | 257 | 0.9 | 0.9 | 0.00 | 0.00 | 0.00 | 33 | 1009.1 |
| 20260506173910 | 75 | 240 | 0.9 | 0.9 | 0.00 | 0.00 | 0.00 | 31 | 1009.1 |
| 20260506172909 | 76 | 200 | 0.0 | 0.9 | 0.00 | 0.00 | 0.00 | 31 | 1008.8 |
| 20260506171908 | 77 | 176 | 0.0 | 5.2 | 0.00 | 0.00 | 0.00 | 30 | 1008.8 |
| 20260506170907 | 77 | 133 | 0.0 | 5.2 | 0.00 | 0.00 | 0.00 | 30 | 1008.8 |
| 20260506165804 | 78 | 148 | 0.0 | 1.7 | 0.00 | 0.00 | 0.00 | 29 | 1008.5 |
| 20260506164803 | 79 | 192 | 0.9 | 1.7 | 0.00 | 0.00 | 0.00 | 29 | 1008.5 |
| 20260506163801 | 80 | 252 | 0.9 | 2.6 | 0.00 | 0.00 | 0.00 | 28 | 1008.5 |
| 20260506162800 | 81 | 223 | 0.9 | 2.6 | 0.00 | 0.00 | 0.00 | 27 | 1008.5 |
| 20260506161727 | 82 | 212 | 0.9 | 2.6 | 0.00 | 0.00 | 0.00 | 26 | 1008.5 |
| 20260506160725 | 84 | 276 | 0.0 | 3.5 | 0.00 | 0.00 | 0.00 | 25 | 1008.5 |
| 20260506155724 | 85 | 154 | 1.7 | 3.5 | 0.00 | 0.00 | 0.00 | 25 | 1008.5 |
| 20260506154723 | 86 | 139 | 1.7 | 3.5 | 0.00 | 0.00 | 0.00 | 24 | 1008.5 |
| 20260506153721 | 87 | 207 | 0.9 | 5.2 | 0.00 | 0.00 | 0.00 | 23 | 1008.5 |
| 20260506152720 | 88 | 184 | 1.7 | 3.5 | 0.00 | 0.00 | 0.00 | 22 | 1008.5 |
| 20260506151649 | 87 | 103 | 0.9 | 3.5 | 0.00 | 0.00 | 0.00 | 23 | 1008.5 |
| 20260506150648 | 88 | 280 | 0.9 | 5.2 | 0.00 | 0.00 | 0.00 | 22 | 1008.5 |
| 20260506145647 | 88 | 120 | 0.9 | 5.2 | 0.00 | 0.00 | 0.00 | 22 | 1008.5 |
| 20260506144646 | 89 | 262 | 1.7 | 4.3 | 0.00 | 0.00 | 0.00 | 21 | 1008.5 |
| 20260506143645 | 88 | 233 | 1.7 | 5.2 | 0.00 | 0.00 | 0.00 | 23 | 1008.5 |
| 20260506142644 | 90 | 198 | 1.7 | 5.2 | 0.00 | 0.00 | 0.00 | 21 | 1008.5 |
| 20260506141632 | 90 | 221 | 1.7 | 6.1 | 0.00 | 0.00 | 0.00 | 23 | 1008.5 |
| 20260506140630 | 89 | 186 | 0.9 | 6.1 | 0.00 | 0.00 | 0.00 | 23 | 1008.5 |
| 20260506135629 | 89 | 170 | 0.9 | 3.5 | 0.00 | 0.00 | 0.00 | 22 | 1008.5 |
| 20260506134628 | 89 | 207 | 0.9 | 3.5 | 0.00 | 0.00 | 0.00 | 23 | 1008.5 |
| 20260506133625 | 88 | 110 | 1.7 | 3.5 | 0.00 | 0.00 | 0.00 | 22 | 1008.5 |
| 20260506132624 | 88 | 213 | 1.7 | 8.7 | 0.00 | 0.00 | 0.00 | 22 | 1008.5 |
| 20260506131623 | 88 | 171 | 1.7 | 8.7 | 0.00 | 0.00 | 0.00 | 22 | 1008.8 |
| 20260506130621 | 89 | 217 | 1.7 | 4.3 | 0.00 | 0.00 | 0.00 | 22 | 1008.8 |
| 20260506125620 | 89 | 274 | 0.0 | 4.3 | 0.00 | 0.00 | 0.00 | 22 | 1008.8 |
| 20260506124619 | 88 | 184 | 0.9 | 3.5 | 0.00 | 0.00 | 0.00 | 22 | 1008.8 |
| 20260506123618 | 88 | 333 | 1.7 | 5.2 | 0.00 | 0.00 | 0.00 | 20 | 1008.8 |
| 20260506121421 | 90 | 274 | 0.9 | 3.5 | 0.00 | 0.00 | 0.00 | 20 | 1009.1 |
| 20260506120420 | 89 | 160 | 0.9 | 2.6 | 0.00 | 0.00 | 0.00 | 21 | 1009.1 |
| 20260506115418 | 89 | 286 | 0.9 | 4.3 | 0.00 | 0.00 | 0.00 | 22 | 1009.1 |
| 20260506114417 | 89 | 193 | 0.9 | 4.3 | 0.00 | 0.00 | 0.00 | 21 | 1009.5 |
| 20260506113319 | 89 | 223 | 1.7 | 4.3 | 0.00 | 0.00 | 0.00 | 20 | 1009.5 |
| 20260506112316 | 89 | 205 | 0.9 | 2.6 | 0.00 | 0.00 | 0.00 | 23 | 1009.5 |
| 20260506111315 | 89 | 125 | 0.9 | 1.7 | 0.00 | 0.00 | 0.00 | 22 | 1009.5 |
| 20260506110310 | 89 | 287 | 0.9 | 2.6 | 0.00 | 0.00 | 0.00 | 21 | 1009.8 |
| 20260506105308 | 88 | 311 | 1.7 | 2.6 | 0.00 | 0.00 | 0.00 | 22 | 1009.8 |
| 20260506104305 | 88 | 188 | 1.7 | 3.5 | 0.00 | 0.00 | 0.00 | 24 | 1009.8 |
| 20260506103304 | 88 | 198 | 0.9 | 2.6 | 0.00 | 0.00 | 0.00 | 23 | 1009.8 |
| 20260506102245 | 88 | 128 | 0.9 | 2.6 | 0.00 | 0.00 | 0.00 | 23 | 1009.8 |
| 20260506101245 | 88 | 267 | 0.9 | 2.6 | 0.00 | 0.00 | 0.00 | 24 | 1009.8 |
| 20260506100244 | 87 | 18 | 0.9 | 1.7 | 0.00 | 0.00 | 0.00 | 26 | 1009.8 |
| 20260506095243 | 87 | 268 | 0.9 | 4.3 | 0.00 | 0.00 | 0.00 | 27 | 1009.8 |
| 20260506093216 | 86 | 80 | 0.9 | 3.5 | 0.00 | 0.00 | 0.00 | 29 | 1010.2 |
| 20260506092214 | 86 | 226 | 0.9 | 2.6 | 0.00 | 0.00 | 0.00 | 30 | 1010.2 |
| 20260506091213 | 86 | 106 | 0.9 | 1.7 | 0.00 | 0.00 | 0.00 | 28 | 1010.2 |
| 20260506090212 | 85 | 201 | 0.9 | 1.7 | 0.00 | 0.00 | 0.00 | 31 | 1010.2 |
| 20260506085211 | 86 | 195 | 0.9 | 1.7 | 0.00 | 0.00 | 0.00 | 29 | 1010.2 |
| 20260506084210 | 85 | 214 | 0.0 | 1.7 | 0.00 | 0.00 | 0.00 | 29 | 1010.2 |
| 20260506083209 | 84 | 259 | 0.9 | 1.7 | 0.00 | 0.00 | 0.00 | 30 | 1010.2 |
| 20260506082137 | 83 | 287 | 0.9 | 1.7 | 0.00 | 0.00 | 0.00 | 34 | 1010.2 |
| 20260506081104 | 83 | 215 | 0.9 | 1.7 | 0.00 | 0.00 | 0.00 | 33 | 1010.2 |
| 20260506073035 | 80 | 142 | 0.9 | 1.7 | 0.00 | 0.00 | 0.00 | 35 | 1010.2 |
| 20260506072034 | 79 | 313 | 0.9 | 1.7 | 0.00 | 0.00 | 0.00 | 35 | 1010.2 |
| 20260506071033 | 78 | 88 | 0.9 | 1.7 | 0.00 | 0.00 | 0.00 | 36 | 1010.2 |